N4RCT Weather Reports


Display with metric or nautical units.
time (UTC)temp
F
wind
direction
speed
MPH
gust
MPH
rain 1hr
in
rain 24hr
in
rain mn
in
humidity
%
barometer
mb
20260509094951 55 116 0.0 0.0 0.00 0.00 0.00 99 1011.0
20260509094447 55 115 0.0 0.0 0.00 0.00 0.00 99 1011.2
20260509093945 55 127 0.0 0.0 0.00 0.00 0.00 99 1011.4
20260509093442 55 128 0.0 0.0 0.00 0.00 0.00 99 1011.2
20260509092940 55 117 0.0 0.0 0.00 0.00 0.00 99 1011.1
20260509092438 55 115 0.0 0.0 0.00 0.00 0.00 99 1011.4
20260509091937 55 126 0.0 0.0 0.00 0.00 0.00 99 1011.7
20260509091433 54 126 0.0 0.0 0.00 0.00 0.00 99 1011.6
20260509090930 54 132 0.0 0.0 0.00 0.00 0.00 99 1011.7
20260509090427 54 131 0.0 0.0 0.00 0.00 0.00 99 1011.3
20260509085925 54 121 0.0 0.0 0.00 0.00 0.00 99 1011.1
20260509085422 54 109 0.0 0.0 0.00 0.00 0.00 99 1010.7
20260509084918 55 112 0.0 0.0 0.00 0.00 0.00 99 1011.0
20260509084415 54 110 0.0 0.0 0.00 0.00 0.00 99 1011.2
20260509083913 54 114 0.0 0.0 0.00 0.00 0.00 99 1011.2
20260509083409 54 128 0.0 0.0 0.00 0.00 0.00 99 1010.9
20260509082906 54 107 0.0 0.0 0.00 0.00 0.00 99 1011.0
20260509082403 54 128 0.0 0.0 0.00 0.00 0.00 99 1011.1
20260509081900 54 128 0.0 0.0 0.00 0.00 0.00 99 1011.0
20260509081357 54 135 0.0 0.0 0.00 0.00 0.00 99 1011.1
20260509080855 54 115 0.0 0.0 0.00 0.00 0.00 99 1010.9
20260509080353 54 115 0.0 0.0 0.00 0.00 0.00 99 1011.1
20260509075851 54 117 0.0 0.0 0.00 0.00 0.00 99 1011.2
20260509075347 54 117 0.0 0.0 0.00 0.00 0.00 99 1011.1
20260509074845 54 124 0.0 0.0 0.00 0.00 0.00 99 1011.3
20260509074342 54 126 0.0 0.0 0.00 0.00 0.00 99 1011.3
20260509073838 54 117 0.0 0.0 0.00 0.00 0.00 99 1011.4
20260509073335 53 124 0.0 0.0 0.00 0.00 0.00 99 1011.3
20260509072832 53 132 0.0 0.0 0.00 0.00 0.00 99 1011.1
20260509072328 53 118 0.0 0.0 0.00 0.00 0.00 99 1011.3
20260509071825 53 117 0.0 0.0 0.00 0.00 0.00 99 1011.1
20260509071322 53 117 0.0 0.0 0.00 0.00 0.00 99 1011.1
20260509070819 53 118 0.0 0.0 0.00 0.00 0.00 99 1011.1
20260509070315 53 126 0.0 0.0 0.00 0.00 0.00 99 1010.9
20260509065812 52 126 0.0 0.0 0.00 0.00 0.00 99 1011.2
20260509065308 52 126 0.0 0.0 0.00 0.00 0.00 99 1011.0
20260509064804 52 126 0.0 0.0 0.00 0.00 0.00 99 1011.1
20260509064302 52 133 0.0 0.0 0.00 0.00 0.00 99 1011.4
20260509063759 52 115 0.0 0.0 0.00 0.00 0.00 99 1011.3
20260509063255 52 134 0.0 0.0 0.00 0.00 0.00 99 1011.4
20260509062753 52 113 0.0 0.0 0.00 0.00 0.00 99 1011.3
20260509062250 52 117 0.0 0.0 0.00 0.00 0.00 99 1011.5
20260509061747 52 113 0.0 0.0 0.00 0.00 0.00 99 1011.3
20260509061245 52 118 0.0 0.0 0.00 0.00 0.00 99 1011.1
20260509060742 52 124 0.0 0.0 0.00 0.00 0.00 99 1011.4
20260509060238 52 126 0.0 0.0 0.00 0.00 0.00 99 1011.8
20260509055734 52 139 0.0 0.0 0.00 0.00 0.00 99 1012.0
20260509055230 52 113 0.0 0.0 0.00 0.00 0.00 99 1011.8
20260509054727 53 112 0.0 0.0 0.00 0.00 0.00 99 1012.3
20260509054224 53 114 0.0 0.0 0.00 0.00 0.00 99 1012.5
20260509053722 53 114 0.0 0.0 0.00 0.00 0.00 99 1012.5
20260509053219 53 115 0.0 0.0 0.00 0.00 0.00 99 1012.4
20260509052716 53 116 0.0 0.0 0.00 0.00 0.00 99 1012.6
20260509052214 53 119 0.0 0.0 0.00 0.00 0.00 99 1012.4
20260509051711 53 119 0.0 0.0 0.00 0.00 0.00 99 1012.6
20260509051209 53 128 0.0 0.0 0.00 0.00 0.00 99 1012.4
20260509050706 53 127 0.0 0.0 0.00 0.00 0.00 99 1012.5
20260509050202 53 128 0.0 0.0 0.00 0.00 0.00 99 1012.2
20260509045700 53 115 0.0 0.0 0.00 0.00 0.00 99 1012.5
20260509045156 53 124 0.0 0.0 0.00 0.00 0.00 99 1012.4
20260509044654 53 124 0.0 0.0 0.00 0.00 0.00 99 1012.3
20260509044151 53 124 0.0 0.0 0.00 0.00 0.00 99 1012.1
20260509043647 53 130 0.0 0.0 0.00 0.00 0.00 99 1012.2
20260509043143 53 128 0.0 0.0 0.00 0.00 0.00 99 1012.3
20260509042640 53 131 0.0 0.0 0.00 0.00 0.00 99 1012.2
20260509042136 54 130 0.0 0.0 0.00 0.00 0.00 99 1012.3
20260509041633 54 114 0.0 0.0 0.00 0.00 0.00 99 1012.1
20260509041130 54 113 0.0 0.0 0.00 0.00 0.00 99 1012.1
20260509040629 54 118 0.0 0.0 0.00 0.00 0.00 99 1012.3
20260509040125 54 121 0.0 0.0 0.00 0.00 0.00 99 1012.3
20260509035622 54 130 0.0 0.0 0.00 0.00 0.00 99 1012.5
20260509035118 54 114 0.0 0.0 0.00 0.00 0.00 99 1012.4
20260509034616 54 112 0.0 0.0 0.00 0.00 0.00 99 1012.6
20260509034113 54 114 0.0 0.0 0.00 0.00 0.00 99 1012.8
20260509033610 54 128 0.0 0.0 0.00 0.00 0.00 99 1012.9
20260509033107 55 128 0.0 0.0 0.00 0.00 0.00 98 1013.0
20260509032604 55 108 0.0 0.0 0.00 0.00 0.00 99 1013.1
20260509032101 55 110 0.0 0.0 0.00 0.00 0.00 98 1013.2
20260509031559 55 110 0.0 0.0 0.00 0.00 0.00 98 1013.0
20260509031056 55 110 0.0 0.0 0.00 0.00 0.00 98 1012.9
20260509030554 55 110 0.0 0.0 0.00 0.00 0.00 98 1012.8
20260509030051 55 110 0.0 0.0 0.00 0.00 0.00 98 1012.8
20260509025547 55 111 0.0 0.0 0.00 0.00 0.00 98 1013.1
20260509025043 55 111 0.0 0.0 0.00 0.00 0.00 98 1012.9
20260509024538 55 111 0.0 0.0 0.00 0.00 0.00 98 1013.0
20260509024035 55 110 0.0 0.0 0.00 0.00 0.00 98 1013.0
20260509023533 56 114 0.0 0.0 0.00 0.00 0.00 97 1013.2
20260509023029 56 114 0.0 0.0 0.00 0.00 0.00 97 1013.2
20260509022526 56 116 0.0 0.0 0.00 0.00 0.00 97 1013.5
20260509022024 56 113 0.0 0.0 0.00 0.00 0.00 97 1013.2
20260509021521 57 117 0.0 0.0 0.00 0.00 0.00 97 1013.2
20260509021018 57 117 0.0 0.0 0.00 0.00 0.00 96 1013.2
20260509020516 57 122 0.0 0.0 0.00 0.00 0.00 96 1013.0
20260509020012 57 128 0.0 0.0 0.00 0.00 0.00 96 1013.1
20260509015512 58 117 0.0 0.0 0.00 0.00 0.00 95 1012.8
20260509015008 58 116 0.0 0.0 0.00 0.00 0.00 95 1013.1
20260509014505 58 117 0.0 0.0 0.00 0.00 0.00 95 1013.1
20260509014001 58 116 0.0 0.0 0.00 0.00 0.00 95 1012.8
20260509013458 58 116 0.0 0.0 0.00 0.00 0.00 94 1012.9
20260509012954 58 124 0.0 0.0 0.00 0.00 0.00 94 1012.8
20260509012450 58 128 0.0 0.0 0.00 0.00 0.00 94 1012.9
20260509011947 59 128 0.0 0.0 0.00 0.00 0.00 93 1012.9
20260509011445 59 117 0.0 0.0 0.00 0.00 0.00 93 1012.8
20260509010942 59 125 0.0 0.0 0.00 0.00 0.00 93 1013.0
20260509010440 59 122 0.0 0.0 0.00 0.00 0.00 93 1012.8
20260509005936 59 117 0.0 0.0 0.00 0.00 0.00 93 1012.9
20260509005435 59 117 0.0 0.0 0.00 0.00 0.00 93 1013.0
20260509004935 60 122 0.0 0.0 0.00 0.00 0.00 92 1012.9
20260509004431 60 116 0.0 0.0 0.00 0.00 0.00 92 1012.7
20260509003929 59 126 0.0 0.0 0.00 0.00 0.00 90 1012.9
20260509003427 60 124 0.0 0.0 0.00 0.00 0.00 92 1012.9
20260509002923 59 126 0.0 0.0 0.00 0.00 0.00 92 1012.7
20260509002422 60 126 0.0 0.0 0.00 0.00 0.00 92 1012.9
20260509001918 60 126 0.0 0.0 0.00 0.00 0.00 94 1012.9
20260509001415 60 126 0.0 0.0 0.00 0.00 0.00 94 1013.0
20260509000912 60 130 0.0 0.0 0.00 0.00 0.00 94 1012.7
20260509000410 60 129 0.0 0.0 0.00 0.00 0.00 94 1012.7
20260508235905 61 131 0.0 0.0 0.00 0.00 0.00 94 1013.0
20260508235403 61 123 0.0 0.0 0.00 0.00 0.00 93 1012.8
20260508234900 61 131 0.0 0.0 0.00 0.00 0.00 93 1012.9
20260508234356 61 142 0.0 0.0 0.00 0.00 0.00 92 1012.8
20260508233855 62 135 0.0 0.0 0.00 0.00 0.00 90 1012.4
20260508233354 62 126 0.0 0.0 0.00 0.00 0.00 90 1012.4
20260508232850 62 124 0.0 0.0 0.00 0.00 0.00 91 1012.7
20260508232347 63 124 0.0 0.0 0.00 0.00 0.00 91 1012.7
20260508231845 63 124 0.0 0.0 0.00 0.00 0.00 91 1012.7
20260508231341 64 113 0.0 0.0 0.00 0.00 0.00 88 1012.7
20260508230838 64 112 0.0 0.0 0.00 0.00 0.00 86 1012.7
20260508230334 64 112 0.0 0.0 0.00 0.00 0.00 84 1012.7
20260508225832 65 112 0.0 0.0 0.00 0.00 0.00 81 1012.8
20260508225328 65 111 0.0 0.0 0.00 0.00 0.00 80 1012.6
20260508224827 65 111 0.0 0.0 0.00 0.00 0.00 79 1012.7
20260508224324 65 115 0.0 0.0 0.00 0.00 0.00 78 1012.7
20260508223821 66 118 0.0 0.0 0.00 0.00 0.00 77 1012.7
20260508223318 66 118 0.0 0.0 0.00 0.00 0.00 75 1012.9
20260508222816 66 119 0.0 0.0 0.00 0.00 0.00 75 1012.6
20260508222313 66 123 0.0 0.0 0.00 0.00 0.00 75 1012.9
20260508221809 66 124 0.0 0.0 0.00 0.00 0.00 73 1012.9
20260508221305 66 124 0.0 0.0 0.00 0.00 0.00 74 1012.9
20260508220801 67 130 0.0 0.0 0.00 0.00 0.00 71 1012.7
20260508220258 67 129 0.0 0.0 0.00 0.00 0.00 70 1013.1
20260508215754 67 130 0.0 0.0 0.00 0.00 0.00 70 1012.9
20260508215251 67 130 0.0 0.0 0.00 0.00 0.00 70 1012.9
20260508214749 67 116 0.0 0.0 0.00 0.00 0.00 67 1012.8
20260508214245 67 121 0.0 0.0 0.00 0.00 0.00 68 1012.6
20260508213742 67 129 0.0 0.0 0.00 0.00 0.00 69 1013.0
20260508213239 67 128 0.0 0.0 0.00 0.00 0.00 66 1012.9
20260508212735 67 123 0.0 0.0 0.00 0.00 0.00 67 1012.7
20260508212232 68 123 0.0 0.0 0.00 0.00 0.00 68 1012.6
20260508211727 68 126 0.0 0.0 0.00 0.00 0.00 66 1012.9
20260508211223 68 116 0.0 0.0 0.00 0.00 0.00 60 1012.7
20260508210721 68 123 0.0 0.0 0.00 0.00 0.00 64 1012.8
20260508210218 68 131 0.0 0.0 0.00 0.00 0.00 62 1013.0
20260508205715 68 126 0.0 0.0 0.00 0.00 0.00 64 1012.9
20260508205211 69 126 0.0 0.0 0.00 0.00 0.00 64 1012.8
20260508204707 69 118 0.0 0.0 0.00 0.00 0.00 61 1012.8
20260508204204 69 112 0.0 0.0 0.00 0.00 0.00 63 1012.9
20260508203700 69 124 0.0 0.0 0.00 0.00 0.00 62 1013.2
20260508203156 69 123 0.0 0.0 0.00 0.00 0.00 61 1013.1
20260508202652 69 126 0.0 0.0 0.00 0.00 0.00 61 1013.0
20260508202150 69 135 0.0 0.0 0.00 0.00 0.00 62 1013.2
20260508201646 70 128 0.0 0.0 0.00 0.00 0.00 68 1013.2
20260508201143 70 107 0.0 0.0 0.00 0.00 0.00 59 1013.2
20260508200640 70 113 0.0 0.0 0.00 0.00 0.00 58 1013.3
20260508200136 71 116 0.0 0.0 0.00 0.00 0.00 55 1013.0
20260508195633 70 116 0.0 0.0 0.00 0.00 0.00 57 1013.2
20260508195129 70 118 0.0 0.0 0.00 0.00 0.00 54 1013.2
20260508194626 71 121 0.0 0.0 0.00 0.00 0.00 52 1013.1
20260508194123 70 120 0.0 0.0 0.00 0.00 0.00 50 1013.5
20260508193620 70 136 0.0 0.0 0.00 0.00 0.00 48 1013.3
20260508193116 71 131 0.0 0.0 0.00 0.00 0.00 52 1013.5
20260508192613 71 124 0.0 0.0 0.00 0.00 0.00 45 1013.6
20260508192110 71 124 0.0 0.0 0.00 0.00 0.00 52 1013.9
20260508191607 71 119 0.0 0.0 0.00 0.00 0.00 53 1013.8
20260508191104 71 129 0.0 0.0 0.00 0.00 0.00 48 1014.0
20260508190601 71 132 0.0 0.0 0.00 0.00 0.00 54 1014.4
20260508190057 72 133 0.0 0.0 0.00 0.00 0.00 53 1014.3
20260508185554 72 92 0.0 0.0 0.00 0.00 0.00 46 1014.4
20260508185052 72 117 0.0 0.0 0.00 0.00 0.00 46 1014.1
20260508184549 72 119 0.0 0.0 0.00 0.00 0.00 47 1014.5
20260508184046 73 86 0.0 0.0 0.00 0.00 0.00 46 1014.2
20260508183542 72 106 0.0 0.0 0.00 0.00 0.00 42 1014.4
20260508183038 72 125 0.0 0.0 0.00 0.00 0.00 45 1014.7
20260508182535 72 142 0.0 0.0 0.00 0.00 0.00 44 1014.5
20260508182032 71 88 0.0 0.0 0.00 0.00 0.00 42 1014.5
20260508181527 73 83 0.0 1.0 0.00 0.00 0.00 41 1014.8
20260508181025 74 140 0.0 0.0 0.00 0.00 0.00 39 1014.7
20260508180521 72 114 0.0 0.0 0.00 0.00 0.00 38 1014.6
20260508180018 73 45 1.0 1.0 0.00 0.00 0.00 37 1014.8
20260508175514 73 126 0.0 0.0 0.00 0.00 0.00 43 1014.9
20260508175012 72 123 0.0 0.0 0.00 0.00 0.00 44 1014.8
20260508174509 73 73 0.0 1.0 0.00 0.00 0.00 39 1015.0
20260508174006 73 229 1.0 1.0 0.00 0.00 0.00 38 1015.0
20260508173503 74 196 1.0 1.0 0.00 0.00 0.00 38 1015.3
20260508172959 73 119 0.0 0.0 0.00 0.00 0.00 45 1015.2
20260508172456 72 71 0.0 1.0 0.00 0.00 0.00 42 1015.3
20260508171952 71 206 1.0 1.0 0.00 0.00 0.00 43 1015.6
20260508171449 71 166 1.0 1.0 0.00 0.00 0.00 41 1015.4
20260508170945 71 118 0.0 0.0 0.00 0.00 0.00 37 1015.7
20260508170443 71 235 0.0 1.0 0.00 0.00 0.00 41 1015.7
20260508165940 70 81 0.0 0.0 0.00 0.00 0.00 43 1015.5
20260508165438 71 63 1.0 2.0 0.00 0.00 0.00 42 1015.7
20260508164933 70 115 0.0 0.0 0.00 0.00 0.00 44 1015.7
20260508164430 72 74 1.0 2.0 0.00 0.00 0.00 44 1015.7
20260508163928 71 65 2.0 3.0 0.00 0.00 0.00 45 1015.6
20260508163425 71 107 0.0 0.0 0.00 0.00 0.00 47 1015.8
20260508162920 69 118 0.0 0.0 0.00 0.00 0.00 49 1016.3
20260508162419 69 130 0.0 0.0 0.00 0.00 0.00 46 1016.2
20260508161915 69 96 0.0 0.0 0.00 0.00 0.00 51 1016.3
20260508161412 69 88 0.0 0.0 0.00 0.00 0.00 50 1016.6
20260508160909 67 141 1.0 2.0 0.00 0.00 0.00 49 1016.8
20260508160409 67 195 2.0 2.0 0.00 0.00 0.00 53 1016.7
20260508155904 68 155 1.0 2.0 0.00 0.00 0.00 56 1016.8
20260508155402 68 254 2.0 2.0 0.00 0.00 0.00 54 1017.0
20260508154858 69 88 0.0 0.0 0.00 0.00 0.00 52 1016.7
20260508154356 68 78 0.0 0.0 0.00 0.00 0.00 50 1016.7
20260508153852 67 86 1.0 1.0 0.00 0.00 0.00 52 1017.3
20260508153349 67 85 0.0 0.0 0.00 0.00 0.00 55 1016.9
20260508152845 67 87 1.0 2.0 0.00 0.00 0.00 56 1017.1
20260508152342 67 107 0.0 0.0 0.00 0.00 0.00 59 1017.2
20260508151838 67 89 1.0 1.0 0.00 0.00 0.00 59 1017.2
20260508151336 66 189 0.0 0.0 0.00 0.00 0.00 62 1017.0
20260508150832 65 127 0.0 0.0 0.00 0.00 0.00 67 1017.1
20260508150329 65 110 1.0 2.0 0.00 0.00 0.00 64 1017.1
20260508145825 66 94 0.0 0.0 0.00 0.00 0.00 64 1017.1
20260508145321 65 66 1.0 1.0 0.00 0.00 0.00 66 1017.1
20260508144818 66 126 0.0 0.0 0.00 0.00 0.00 65 1017.0
20260508144316 64 103 0.0 1.0 0.00 0.00 0.00 68 1017.3
20260508143813 64 64 0.0 1.0 0.00 0.00 0.00 68 1017.3
20260508143310 63 120 0.0 0.0 0.00 0.00 0.00 69 1017.3
20260508142807 64 98 1.0 2.0 0.00 0.00 0.00 66 1017.3
20260508142306 63 87 0.0 0.0 0.00 0.00 0.00 70 1017.3
20260508141800 64 129 0.0 0.0 0.00 0.00 0.00 68 1017.1
20260508141257 64 100 0.0 1.0 0.00 0.00 0.00 69 1017.3
20260508140755 63 74 0.0 1.0 0.00 0.00 0.00 70 1017.2
20260508140251 63 198 0.0 0.0 0.00 0.00 0.00 70 1017.1
20260508135747 61 120 0.0 0.0 0.00 0.00 0.00 76 1017.2
20260508135243 60 104 0.0 0.0 0.00 0.00 0.00 78 1017.3
20260508134739 61 94 0.0 0.0 0.00 0.00 0.00 75 1017.4
20260508134237 61 107 0.0 0.0 0.00 0.00 0.00 76 1017.2
20260508133733 60 98 0.0 0.0 0.00 0.00 0.00 75 1017.1
20260508133231 61 119 0.0 0.0 0.00 0.00 0.00 76 1017.3
20260508132728 60 113 0.0 0.0 0.00 0.00 0.00 76 1017.3
20260508132226 60 114 0.0 0.0 0.00 0.00 0.00 79 1017.2
20260508131721 59 107 0.0 0.0 0.00 0.00 0.00 82 1017.4
20260508131218 58 104 0.0 0.0 0.00 0.00 0.00 83 1017.2
20260508130714 57 99 0.0 0.0 0.00 0.00 0.00 85 1017.4
20260508130212 57 108 0.0 0.0 0.00 0.00 0.00 88 1017.6
20260508125707 56 118 0.0 0.0 0.00 0.00 0.00 94 1017.6
20260508125204 55 118 0.0 0.0 0.00 0.00 0.00 97 1017.4
20260508124702 53 118 0.0 0.0 0.00 0.00 0.00 97 1017.4
20260508124159 52 118 0.0 0.0 0.00 0.00 0.00 98 1017.8
20260508123657 52 123 0.0 0.0 0.00 0.00 0.00 98 1017.6
20260508123155 51 123 0.0 0.0 0.00 0.00 0.00 99 1017.4
20260508122651 51 123 0.0 0.0 0.00 0.00 0.00 99 1017.3
20260508122147 51 123 0.0 0.0 0.00 0.00 0.00 99 1017.3
20260508121645 51 123 0.0 0.0 0.00 0.00 0.00 99 1017.4
20260508121144 50 121 0.0 0.0 0.00 0.00 0.00 99 1017.0
20260508120641 50 121 0.0 0.0 0.00 0.00 0.00 99 1017.0
20260508120139 50 121 0.0 0.0 0.00 0.00 0.00 99 1017.0
20260508115637 49 116 0.0 0.0 0.00 0.00 0.00 99 1016.7
20260508115133 49 120 0.0 0.0 0.00 0.00 0.00 99 1016.7
20260508114630 49 119 0.0 0.0 0.00 0.00 0.00 99 1016.5
20260508114126 48 111 0.0 0.0 0.00 0.00 0.00 99 1016.4
20260508113623 48 104 0.0 0.0 0.00 0.00 0.00 99 1016.5
20260508113122 48 106 0.0 0.0 0.00 0.00 0.00 99 1016.3
20260508112617 48 107 0.0 0.0 0.00 0.00 0.00 99 1016.1
20260508112115 48 108 0.0 0.0 0.00 0.00 0.00 99 1016.2
20260508111611 48 108 0.0 0.0 0.00 0.00 0.00 99 1016.2
20260508111108 48 108 0.0 0.0 0.00 0.00 0.00 99 1016.0
20260508110607 48 108 0.0 0.0 0.00 0.00 0.00 99 1015.8
20260508105557 48 108 0.0 0.0 0.00 0.00 0.00 99 1015.5
20260508105055 48 108 0.0 0.0 0.00 0.00 0.00 99 1015.7
20260508104552 48 110 0.0 0.0 0.00 0.00 0.00 99 1015.8
20260508104049 48 115 0.0 0.0 0.00 0.00 0.00 99 1015.9
20260508103546 48 123 0.0 0.0 0.00 0.00 0.00 99 1015.6
20260508103043 48 121 0.0 0.0 0.00 0.00 0.00 99 1015.3
20260508102541 48 119 0.0 0.0 0.00 0.00 0.00 99 1015.3
20260508102038 48 123 0.0 0.0 0.00 0.00 0.00 99 1015.3
20260508101536 48 121 0.0 0.0 0.00 0.00 0.00 99 1015.1
20260508101032 48 121 0.0 0.0 0.00 0.00 0.00 99 1015.2
20260508100531 48 116 0.0 0.0 0.00 0.00 0.00 99 1015.0
20260508100027 48 116 0.0 0.0 0.00 0.00 0.00 99 1014.7
20260508095524 48 103 0.0 0.0 0.00 0.00 0.00 99 1014.8